Location: Unspecified
(51.6250°N, 0.8230°E)
Time: 06:22:29
(UTC+01:00)

ISS - Visible Passes

Search period start: 27 May 2018 00:00
Search period end: 06 June 2018 00:00
Orbit: 402 x 407 km, 51.6° (Epoch: 27 May)

Date Brightness Start Highest point End Pass type
(mag) Time Alt. Az. Time Alt. Az. Time Alt. Az.
27 May -3.0 00:56:38 10° W 00:59:03 35° WSW 00:59:03 35° WSW visible
27 May -3.8 22:27:54 10° W 22:31:11 87° N 22:34:28 10° E visible
28 May -3.8 00:04:24 10° W 00:07:38 57° SSW 00:08:21 44° SSE visible
28 May -3.9 23:12:11 10° W 23:15:28 74° SSW 23:17:43 18° ESE visible
29 May -2.0 00:48:53 10° W 00:50:20 19° WSW 00:50:20 19° WSW visible
29 May -3.9 22:19:57 10° W 22:23:15 87° S 22:26:32 10° E visible
29 May -3.2 23:56:31 10° W 23:59:33 36° SSW 23:59:44 36° SSW visible
30 May -3.6 23:04:13 10° W 23:07:25 51° SSW 23:09:09 23° SE visible
31 May -1.3 00:41:32 10° WSW 00:41:46 11° WSW 00:41:46 11° WSW visible
31 May -3.8 22:11:57 10° W 22:15:13 69° SSW 22:18:29 10° ESE visible
31 May -2.3 23:48:45 10° W 23:51:13 21° SW 23:51:13 21° SW visible
01 Jun -2.9 22:56:16 10° W 22:59:14 32° SSW 23:00:41 21° SSE visible
02 Jun -3.3 22:03:55 10° W 22:07:04 45° SSW 22:10:11 10° SE visible
02 Jun -1.5 23:41:36 10° WSW 23:42:49 12° SW 23:42:49 12° SW visible
03 Jun -2.0 22:48:32 10° W 22:50:54 19° SW 22:52:20 15° S visible
04 Jun -2.5 21:55:56 10° W 21:58:48 28° SSW 22:01:38 10° SSE visible
05 Jun -1.2 22:42:04 10° SW 22:42:24 10° SW 22:42:45 10° SW visible
